sat.trackr.live / text

‹ back to catalog

QIANFAN-152

NORAD 69111 · 2026-108H

PAYLOAD ACTIVE UNKNOWN

§ Identity

Operator
Country
PRC
Launch date
2026-05-17
Launch site
WSC
Launch vehicle
Mass (kg)
RCS (m²)

External: N2YO · Heavens-Above · Gunter

§ Orbital elements

Epoch: 2026-09-19T22:57:06.269184Z

Period
106.59 min
Inclination
89.0190°
Eccentricity
0.0002188
Mean motion
13.51028635 rev/d
Perigee alt
1,066.8 km
Apogee alt
1,070.1 km
Semi-major
7,446.6 km
B*
3.4449e-5
RAAN
12.5725°
Arg perigee
97.1944°
Mean anomaly
262.9456°
Rev number
1,724

§ Raw data

QIANFAN-1521 69111U 26108H   26262.95632256  .00000034  00000+0  34449-4 0  99952 69111  89.0190  12.5725 0002188  97.1944 262.9456 13.51028635 17244

JSON: /api/v1/satellites/69111 · /tle

For live sub-satellite position, see the globe view (requires WebGL).

§ Visibility from observer

Set your observer location to see the next 7 days of passes ≥ 10°. The values pass through the URL so the page stays shareable.

No JS? Fill the form by hand. The geolocation button needs JavaScript.